Flag for Panama Weather past 2 weeks in Panama, Panama

Now
91 °F

Scattered clouds.


Feels Like: N/A
Forecast: N/A
Wind: 12 mph from Northwest

Location: Marcos A. Gelabert

Current Time: Apr 26, 2015 at 3:54:28 PM

Latest Report: Apr 26, 2015 at 3:00 PM


Visibility: 6 mi

Pressure: 29.74 "Hg

Humidity: N/A

Dew point: N/A

Location of PanamaLocation

Historic Weather in Panama — Graph

°F

Panama temperature yesterday

Maximum temperature yesterday: 90 °F (at 12:00 PM)
Minimum temperature yesterday: 77 °F (at 6:00 AM)
Average temperature yesterday: 84 °F

Past Weeks' High & Low Weather Summary

 TemperatureHumidityPressure
High93 °F (Apr 11, 2:00 PM)94% (Apr 12, 4:00 AM)29.95 "Hg (Apr 12, 4:00 AM)
Low77 °F (Apr 12, 4:00 AM)49% (Apr 11, 2:00 PM)29.74 "Hg (Apr 18, 4:00 PM)
Average84 °F75%29.84 "Hg
* Reported Apr 11 2:00 PM — Apr 26 2:00 PM, Panama, Weather by CustomWeather, © 2015

Note: Actual official high and low records may vary slightly from our data, if they occured in-between our weather recording intervals... More about our weather records

Advertising

Panama weather history for previous 24 hours

 ConditionsComfort  
Time TempWeatherWind HumidityBarometerVisibility
2:00 PM
Sun, Apr 26
91 °FScattered clouds.13 mph56%29.77 "Hg6 mi
1:00 PM91 °FScattered clouds.13 mph56%29.80 "Hg6 mi
12:00 PM90 °FScattered clouds.7 mph59%29.83 "Hg5 mi
11:00 AM88 °FScattered clouds.5 mph62%29.86 "Hg5 mi
10:00 AM86 °FScattered clouds.3 mph66%29.86 "Hg5 mi
9:00 AM86 °FScattered clouds.3 mph70%29.86 "Hg5 mi
8:00 AM81 °FPassing clouds.6 mph84%29.86 "Hg5 mi
7:00 AM79 °FScattered clouds.3 mph89%29.80 "Hg6 mi
6:00 AM79 °FPassing clouds.5 mph89%29.80 "Hg6 mi
9:00 PM
Sat, Apr 25
81 °FPassing clouds.6 mph79%29.86 "HgN/A
8:00 PM81 °FPassing clouds.7 mph79%29.83 "HgN/A
7:00 PM82 °FPassing clouds.8 mph74%29.83 "HgN/A
6:00 PM82 °FPartly sunny.8 mph74%29.80 "Hg6 mi
5:00 PM84 °FPartly sunny.10 mph70%29.80 "Hg6 mi
4:00 PM84 °FBroken clouds.12 mph66%29.80 "Hg6 mi
3:00 PM86 °FScattered clouds.12 mph66%29.83 "Hg6 mi
Weather by CustomWeather, © 2015

See weather overviewHow to use our weather pages